Location: Bard
(39.9279°N, 78.6592°W)
Time: 07:54:50
(UTC+00:00)

ARIANE 6 FM1 Upper Stage - Pass Details

Date: 20 December 2025
Orbit: 522 x 610 km, 62.0° (Epoch: 14 January)

Event Time Altitude Azimuth Distance (km) Brightness Sun altitude
Exits shadow 11:26:44 14° 325° (NW) 1,556 4.4 -12.2°
Drops below altitude 10° 11:28:39 10° 354° (N) 1,772 4.9 -11.8°
Sets 11:31:49 0° 21° (NNE) 2,658 6.1 -11.3°
